ZHONGXING-2D

Last updated on Thu Jul 03 2025 00:02:48 GMT+0000 (Coordinated Universal Time)

1 43920U 19001A 25183.63069522 -.00000329 00000+0 00000+0 0 9994 2 43920 0.0411 130.9943 0001782 66.2563 80.7295 1.00271163 50570
UTC large
Height (km)
Speed (km/s)
/
Latitude / Longitude
Inclination (degrees)
Orbital Period (minutes)
Azimuth
Elevation
Range (km)
Doppler Factor

Next 0 passes for location: London (51.5072 / 0.1276)

Sorry there are no passes over London.